This is the latest recevied weather packets stored in our database for station/object BV3BA-13. If no packets are shown the sender has not sent any weather packets the latest 10 day(s).
| Time | Temp. | Humidity | Pressure | Rain* | Wind** | Luminosity | Snow |
|---|---|---|---|---|---|---|---|
| 1777816024 | 25.56° C | 84% | 1008.5 hPa | 0 mm | - | - | - |
| 1777815424 | 25.56° C | 85% | 1008.5 hPa | 0 mm | - | - | - |
| 1777814224 | 25.56° C | 88% | 1008.7 hPa | 0 mm | - | - | - |
| 1777813624 | 25.56° C | 89% | 1008.5 hPa | 0 mm | - | - | - |
| 1777811824 | 25.56° C | 91% | 1008.5 hPa | 0 mm | - | - | - |
| 1777811224 | 25.56° C | 91% | 1008.5 hPa | 0 mm | - | - | - |
| 1777810624 | 26.11° C | 91% | 1008.5 hPa | 0 mm | - | - | - |
| 1777810024 | 26.11° C | 91% | 1008.3 hPa | 0 mm | - | - | - |
| 1777809427 | 26.11° C | 91% | 1008.1 hPa | 0 mm | - | - | - |
| 1777808824 | 26.11° C | 90% | 1007.9 hPa | 0 mm | - | - | - |
| 1777807023 | 26.11° C | 91% | 1007.5 hPa | 0 mm | - | - | - |
| 1777806424 | 26.11° C | 90% | 1007.4 hPa | 0 mm | - | - | - |
| 1777805825 | 26.11° C | 89% | 1007.2 hPa | 0 mm | - | - | - |
| 1777804024 | 26.67° C | 86% | 1006.9 hPa | 0 mm | - | - | - |
| 1777803423 | 26.67° C | 85% | 1006.8 hPa | 0 mm | - | - | - |
| 1777802824 | 27.22° C | 84% | 1006.6 hPa | 0 mm | - | - | - |
| 1777802225 | 27.22° C | 82% | 1006.4 hPa | 0 mm | - | - | - |
| 1777801024 | 27.78° C | 79% | 1006 hPa | 0 mm | - | - | - |
| 1777800424 | 27.78° C | 78% | 1005.8 hPa | 0 mm | - | - | - |
| 1777799824 | 27.78° C | 81% | 1005.7 hPa | 0 mm | - | - | - |
| 1777799223 | 27.78° C | 80% | 1005.5 hPa | 0 mm | - | - | - |
| 1777798623 | 28.33° C | 79% | 1005.6 hPa | 0 mm | - | - | - |
| 1777798024 | 27.78° C | 78% | 1005.5 hPa | 0 mm | - | - | - |
| 1777797426 | 27.78° C | 79% | 1005.4 hPa | 0 mm | - | - | - |
| 1777796823 | 28.33° C | 78% | 1005.4 hPa | 0 mm | - | - | - |
* Rain latest hour (hover to see other rain measurements)
** Current wind speed in m/s (hover to see current wind gust speed)